SCP
0 0 0 0 0 0 0 0 0 0 0 0 0 0 0 0 0 0 0 0 0 0 0 0 0 0 0 0 -0 0 0 0 0 0 0 0 0 0 0 0 0 0 0
0 0 0 0 0 0 0 0 0 0 0 0 0 0 0 0 0 0 0 0 0 0 0 0 0 0 -0 -0 0 0 0 0 0 0 0 0 0 0 0 0 0 0 0
0 0 0 0 0 0 0 0 0 0 0 0 0 0 0 0 0 0 0 0 0 0 0 0 0 -0 -0 -0 0 0 0 0 0 0 0 0 0 0 0 0 0 0 0
0 0 0 0 0 0 0 0 0 0 0 0 0 0 0 0 0 0 0 0 -0 0 0 -0 -0 -0 0 -0 0 0 0 0 0 0 0 0 0 0 0 0 0 0 0
0 0 0 0 0 0 0 0 0 0 0 0 0 0 0 0 0 0 0 0 -0 -0 0 -0 -0 -0 -0 -0 0 0 0 0 0 0 0 0 0 0 0 0 0 0 0
0 0 0 0 0 0 0 0 0 0 0 0 0 0 0 0 0 0 0 0 -0 -0 0 -0 0 0 0 -0 -0 0 0 0 0 0 0 0 0 0 0 0 0 0 0
0 0 0 0 0 0 0 0 0 0 0 0 0 0 0 0 0 0 0 0 -0 -0 -0 0 -0 0 0 0 0 -0 0 0 0 0 0 0 0 0 0 0 0 0 0
0 0 0 0 0 0 0 0 0 0 0 0 0 0 0 0 0 0 0 -0 -0 -0 0 0 0 0 0 0 0 0 0 0 0 0 0 0 0 0 0 0 0 0 0
0 0 0 0 0 0 0 0 0 0 0 0 0 0 0 0 0 0 -0 -0 -0 0 0 0 0 0 0 0 0 0 0 0 0 0 0 0 0 0 0 0 0 0 0
0 0 0 0 0 0 0 0 0 0 0 0 0 0 0 0 0 0 0 -0 -0 0 0 0 0 0 0 0 0 0 0 0 0 0 0 0 0 0 0 0 0 0 0
0 0 0 0 -0 -0 0 0 0 0 0 0 0 0 0 0 0 0 0 -0 -0 0 0 0 0 0 0 0 0 0 0 0 0 0 0 0 0 0 0 0 0 0 0
0 -0 -0 -0 0 -0 0 0 0 0 0 0 0 0 0 0 0 0 0 0 -0 0 0 0 0 0 0 0 0 0 0 0 0 0 0 0 0 0 0 0 0 0 0
0 0 -0 -0 -0 -0 0 0 -0 0 0 0 0 0 0 -0 0 0 0 0 0 0 0 0 0 0 0 0 0 0 0 0 0 0 0 0 0 0 0 0 0 0 0
-0 -0 -0 -0 -0 -0 -0 -0 -0 0 0 0 0 0 -0 0 0 0 0 0 0 -0 0 0 0 0 0 0 0 0 0 0 0 0 0 0 0 0 0 0 0 0 0
-0 -0 -0 -0 -0 -0 -0 -0 -0 -0 0 0 0 0 0 0 0 0 0 0 0 -0 -0 -0 0 0 0 0 0 0 0 0 0 0 0 0 0 0 0 0 0 0 0
-0 -0 -0 -0 -0 -0 -0 -0 -0 -0 -0 -0 0 0 0 0 0 0 0 0 0 0 0 -0 -0 0 0 0 0 0 0 0 0 0 0 0 0 0 0 0 0 0 0
-0 -0 -0 -0 -0 -0 -0 -0 -0 -0 -0 -0 -0 0 0 0 0 0 0 0 0 0 0 0 0 0 0 0 0 0 0 0 0 0 0 0 0 0 0 0 0 0 0
-0 -0 -0 -0 -0 -0 -0 -0 -0 -0 -0 -0 -0 0 0 0 0 0 0 0 0 0 0 0 0 0 0 0 0 0 0 0 0 0 0 0 0 0 0 0 0 0 0
-0 -0 -0 -0 -0 -0 -0 -0 -0 -0 -0 -0 -0 -0 0 0 0 0 0 0 0 0 0 0 0 0 0 0 0 0 0 0 0 0 0 0 0 0 0 0 0 0 0
-0 -0 -0 -0 -0 -0 -0 -0 -0 -0 -0 -0 -0 -0 -0 0 0 0 0 0 0 0 0 0 0 0 0 0 0 0 0 0 0 0 -0 -0 0 0 0 0 0 0 0
-0 -0 -0 -0 -0 -0 -0 -0 -0 -0 -0 -0 -0 -0 -0 -0 0 0 0 0 0 0 0 0 0 0 0 0 0 0 0 0 0 -0 -0 0 0 0 0 0 0 0 -0
-0 -0 -0 -0 -0 -0 -0 -0 -0 -0 -0 -0 -0 -0 -0 -0 -0 -0 0 0 0 0 0 0 -0 -0 -0 -0 0 0 -0 -0 -0 -0 -0 -0 0 0 -0 0 0 0 -0
-0 -0 -0 -0 -0 -0 -0 -0 -0 -0 -0 -0 -0 -0 -0 0 -0 -0 0 0 0 0 0 0 0 -0 -0 -0 -0 -0 0 -0 -0 -0 -0 0 0 0 0 0 0 -0 -0
0 -0 -0 -0 -0 -0 -0 -0 -0 -0 -0 -0 -0 -0 -0 0 0 0 0 0 0 0 0 0 -0 -0 -0 -0 -0 -0 -0 -0 -0 0 0 0 0 0 0 -0 0 0 0
0 0 -0 0 -0 -0 -0 -0 -0 -0 0 -0 -0 0 -0 -0 0 0 0 0 0 0 0 0 -0 0 -0 -0 0 0 0 0 0 -0 0 -0 -0 0 0 0 0 0 0
0 0 0 0 0 -0 -0 -0 -0 0 0 0 0 0 0 0 0 0 0 0 0 -0 -0 -0 -0 0 -0 -0 -0 -0 0 -0 -0 0 -0 -0 -0 0 0 0 0 0 0
Wind_Speed_500mb
43 40 64 69 72 61 46 31 19 13 9 4 7 13 20 21 19 21 21 28 25 19 24 19 19 23 19 20 33 30 27 33 36 34 30 27 27 31 30 31 36 39 37
43 40 57 74 77 59 40 26 16 12 8 3 9 17 23 19 21 16 20 26 15 8 14 13 19 20 19 29 32 31 34 36 33 34 35 26 27 32 36 36 40 42 44
51 47 65 80 69 53 35 20 13 10 8 4 10 20 23 22 21 13 20 13 3 8 10 11 13 18 23 29 34 35 35 38 33 34 27 16 10 37 30 35 38 46 47
41 50 76 76 61 43 26 17 13 8 7 5 11 23 26 20 10 11 11 9 3 7 9 10 10 16 22 32 32 30 29 37 35 41 29 29 34 20 20 34 37 40 44
44 63 81 70 51 35 24 16 13 8 8 3 14 23 20 8 10 11 11 9 5 8 11 12 14 15 21 30 32 30 25 31 41 46 34 26 37 32 36 28 37 34 37
49 62 69 57 45 33 25 18 12 11 9 2 15 18 10 10 16 13 11 10 6 10 13 13 14 14 21 29 35 31 25 29 33 28 29 35 39 33 42 34 35 36 25
54 66 69 60 48 38 30 19 14 11 9 1 12 9 10 14 18 14 13 6 2 8 10 17 16 16 21 26 32 32 32 30 28 28 25 29 25 43 48 47 44 36 31
55 68 70 59 46 36 32 20 17 12 8 2 9 6 10 13 17 17 12 5 5 6 11 21 19 20 22 26 28 28 30 30 28 24 23 27 30 34 39 53 55 44 23
65 69 66 55 45 36 33 20 20 13 8 2 3 5 10 13 16 16 12 8 7 8 12 22 23 24 23 24 27 29 30 28 27 26 23 20 29 39 36 22 40 53 36
61 66 64 55 42 33 30 22 18 13 8 3 4 5 9 13 16 12 13 10 9 9 13 17 24 26 25 25 26 29 26 28 30 26 24 26 29 33 32 26 40 38 46
64 68 65 53 40 38 33 26 25 22 13 5 4 5 8 13 17 9 10 17 15 11 13 17 22 27 28 29 28 27 26 27 29 25 23 21 24 34 36 26 33 34 34
64 68 64 55 49 47 39 31 30 26 12 6 6 4 7 13 16 12 10 14 16 15 15 16 18 24 27 27 26 26 26 32 26 23 24 28 25 32 32 28 30 31 32
63 67 64 60 55 51 44 33 31 24 17 10 9 8 7 12 22 24 16 16 16 15 16 18 18 22 26 27 25 21 25 27 21 21 21 25 30 33 29 34 30 31 31
68 71 66 63 57 54 47 36 31 28 23 13 11 10 9 12 15 26 23 21 19 17 18 19 18 19 22 24 26 19 27 29 21 20 25 26 27 29 31 30 30 31 31
69 73 69 67 61 59 51 39 29 34 29 17 14 13 13 17 16 15 17 18 21 21 22 20 21 18 19 20 25 27 34 22 19 21 31 35 32 31 35 37 33 44 50
75 74 69 69 66 61 55 46 35 37 35 24 18 16 18 24 20 16 17 17 17 19 18 23 14 15 19 20 23 39 36 22 23 31 40 37 38 37 44 39 36 44 41
78 77 76 72 69 63 56 52 44 35 38 31 24 17 27 27 23 18 17 17 17 16 17 22 15 14 20 30 23 44 33 31 27 37 31 44 38 46 48 40 37 32 26
79 75 75 72 70 63 57 52 50 40 39 39 32 24 31 29 26 22 19 16 15 15 16 15 15 19 20 30 34 41 41 31 31 34 46 48 37 40 40 38 39 29 25
78 72 70 66 69 67 60 58 57 48 44 45 38 32 28 35 31 25 21 16 12 16 20 20 21 22 31 31 32 41 42 35 35 47 41 41 40 33 30 26 29 32 27
78 73 71 71 69 70 65 64 61 57 51 48 39 35 28 40 36 29 24 18 13 13 17 19 21 22 20 26 29 31 37 46 42 49 47 43 26 19 25 25 26 24 27
83 77 72 72 73 72 69 70 66 62 49 44 41 37 31 40 41 36 30 26 20 14 18 18 19 19 21 22 27 29 37 47 50 43 47 35 26 24 25 23 18 13 13
83 80 75 73 74 75 73 74 71 57 51 51 45 42 38 40 43 41 38 32 26 20 22 25 23 21 22 26 30 31 34 48 43 39 38 35 31 27 25 25 22 21 19
88 85 81 76 75 77 77 77 71 64 56 57 50 46 44 38 44 44 45 41 34 30 30 29 30 29 26 25 28 30 30 30 29 31 35 34 30 28 26 23 22 22 24
87 90 86 79 76 77 79 74 70 66 60 59 54 49 50 48 44 43 44 45 43 38 38 38 33 31 33 32 32 33 34 32 32 34 35 33 31 31 30 31 32 29 26
83 91 93 84 75 74 81 80 75 70 67 62 58 53 53 55 50 45 43 41 43 40 43 44 39 38 36 37 37 36 37 37 37 37 39 41 42 41 40 38 35 33 31
81 89 95 85 77 74 81 80 80 74 70 70 65 59 57 60 59 53 49 46 35 37 36 37 37 35 28 24 34 40 39 37 40 45 46 47 46 44 44 44 41 40 38
Wind_Direction_500mb
258 252 232 216 201 197 195 201 217 230 228 266 299 323 332 324 312 309 317 325 314 262 238 237 239 243 244 207 185 186 188 184 185 188 205 198 201 208 213 209 201 201 198
261 228 213 197 195 187 191 202 216 219 204 267 324 338 339 330 319 306 311 324 323 210 203 217 236 230 209 189 186 187 178 177 184 194 181 171 195 205 212 211 202 199 200
240 210 194 188 181 188 190 203 209 201 198 270 338 345 339 326 321 309 315 337 327 172 195 204 210 202 194 189 186 190 190 183 186 193 180 159 171 182 193 197 207 201 202
221 199 186 180 185 181 185 190 194 192 194 286 340 343 338 329 345 329 344 4 230 202 205 192 202 192 193 193 191 192 195 200 202 194 203 188 191 165 161 198 206 206 207
200 189 182 182 176 181 184 177 180 187 203 293 347 343 344 359 1 344 340 330 281 199 177 198 194 201 197 191 191 191 197 197 198 191 200 187 169 166 159 156 178 192 203
183 185 180 175 173 176 176 172 175 180 195 334 346 354 28 27 5 343 339 315 274 215 190 194 190 194 187 190 194 192 195 194 197 199 213 204 173 171 175 159 165 184 181
180 182 179 177 177 177 178 174 174 183 179 52 350 21 13 21 8 6 352 348 157 174 194 193 186 179 168 175 184 192 193 190 201 218 211 213 201 186 203 174 161 158 166
183 182 181 179 181 180 180 175 169 162 156 94 358 22 6 14 5 6 11 25 95 133 173 185 180 168 161 165 175 176 183 192 200 211 222 213 208 192 205 196 179 163 162
182 182 181 183 184 183 182 179 169 163 156 153 35 360 349 8 8 15 37 71 108 122 147 174 171 163 157 162 170 171 181 189 197 207 207 223 204 208 181 193 196 174 158
183 183 184 184 185 183 182 178 177 173 154 158 99 33 30 19 26 36 50 74 107 108 129 158 176 175 167 165 165 169 178 195 197 202 211 210 204 182 197 214 200 188 175
186 185 185 184 184 184 185 183 186 190 182 171 138 68 43 40 38 62 78 80 94 102 122 139 166 174 173 171 171 173 181 187 187 199 207 201 201 200 213 206 211 205 197
187 186 185 184 187 188 188 188 186 188 184 173 171 135 73 64 41 73 102 91 96 102 122 144 152 167 172 170 176 176 176 173 180 194 202 201 196 194 196 196 195 200 195
188 187 187 187 191 192 191 190 187 183 188 176 171 159 108 82 69 73 96 105 105 113 122 124 144 157 161 164 171 174 177 181 185 180 185 187 179 177 180 175 187 182 171
191 188 189 190 193 195 194 189 189 187 190 171 165 164 142 130 98 84 89 98 97 103 127 131 132 154 162 162 164 165 160 155 172 191 191 186 182 184 174 179 191 189 167
193 192 191 195 195 197 195 190 188 186 193 177 173 167 164 149 135 107 93 94 85 89 116 135 143 139 162 163 171 166 152 146 146 151 162 156 157 161 160 153 137 144 144
196 195 197 199 198 197 195 192 188 186 194 189 177 166 169 155 145 135 118 104 90 73 96 125 142 170 170 168 181 173 174 155 130 141 149 154 152 152 146 157 146 141 147
198 199 200 202 201 198 195 193 188 182 192 193 183 170 172 161 154 151 127 109 95 78 90 120 116 126 166 170 151 172 170 162 143 146 139 142 128 127 131 136 138 138 140
201 204 202 204 205 200 197 192 190 187 192 194 190 181 181 176 171 168 151 128 98 96 106 124 98 109 117 164 164 159 165 152 137 139 144 143 135 136 139 144 136 143 141
206 205 207 203 206 202 199 194 193 194 194 196 194 188 186 185 180 175 166 149 122 112 114 104 112 123 109 125 171 191 192 178 165 168 161 155 141 134 138 137 143 141 130
209 207 210 207 207 205 201 198 196 197 197 198 194 191 189 190 183 185 181 169 147 130 136 122 111 116 129 123 119 133 162 173 172 167 157 156 160 155 149 142 148 141 133
212 209 213 209 208 205 202 201 201 202 198 195 195 188 192 192 192 193 193 184 177 163 162 158 141 127 124 135 141 144 157 160 161 173 179 178 170 166 167 160 148 149 161
210 211 211 214 210 206 204 204 207 203 198 196 194 189 191 190 192 197 196 197 197 189 173 176 166 156 150 141 135 138 154 165 164 166 167 171 172 174 176 179 187 196 207
212 211 210 214 213 208 207 206 209 203 199 197 195 191 194 189 190 194 197 198 204 206 191 181 183 179 171 164 162 155 155 163 176 176 174 176 179 180 184 189 196 199 205
211 209 209 213 214 210 210 213 209 204 199 198 196 193 196 197 193 195 201 204 205 208 206 196 190 190 192 189 184 181 180 178 177 181 182 186 193 197 195 192 194 197 201
209 208 209 208 213 213 210 212 212 206 201 200 198 194 197 204 203 204 203 208 216 217 211 207 203 200 203 205 202 196 192 192 194 195 198 201 203 202 199 198 202 209 219
205 207 207 206 209 213 211 214 213 208 204 202 201 200 199 207 210 211 211 215 217 220 224 225 216 212 216 214 214 210 207 209 209 209 211 211 210 209 207 208 212 219 229
Wind_Speed_850mb
43 40 64 69 72 61 46 31 19 13 9 4 7 13 20 21 19 21 21 28 25 19 24 19 19 23 19 20 33 30 27 33 36 34 30 27 27 31 30 31 36 39 37
43 40 57 74 77 59 40 26 16 12 8 3 9 17 23 19 21 16 20 26 15 8 14 13 19 20 19 29 32 31 34 36 33 34 35 26 27 32 36 36 40 42 44
51 47 65 80 69 53 35 20 13 10 8 4 10 20 23 22 21 13 20 13 3 8 10 11 13 18 23 29 34 35 35 38 33 34 27 16 10 37 30 35 38 46 47
41 50 76 76 61 43 26 17 13 8 7 5 11 23 26 20 10 11 11 9 3 7 9 10 10 16 22 32 32 30 29 37 35 41 29 29 34 20 20 34 37 40 44
44 63 81 70 51 35 24 16 13 8 8 3 14 23 20 8 10 11 11 9 5 8 11 12 14 15 21 30 32 30 25 31 41 46 34 26 37 32 36 28 37 34 37
49 62 69 57 45 33 25 18 12 11 9 2 15 18 10 10 16 13 11 10 6 10 13 13 14 14 21 29 35 31 25 29 33 28 29 35 39 33 42 34 35 36 25
54 66 69 60 48 38 30 19 14 11 9 1 12 9 10 14 18 14 13 6 2 8 10 17 16 16 21 26 32 32 32 30 28 28 25 29 25 43 48 47 44 36 31
55 68 70 59 46 36 32 20 17 12 8 2 9 6 10 13 17 17 12 5 5 6 11 21 19 20 22 26 28 28 30 30 28 24 23 27 30 34 39 53 55 44 23
65 69 66 55 45 36 33 20 20 13 8 2 3 5 10 13 16 16 12 8 7 8 12 22 23 24 23 24 27 29 30 28 27 26 23 20 29 39 36 22 40 53 36
61 66 64 55 42 33 30 22 18 13 8 3 4 5 9 13 16 12 13 10 9 9 13 17 24 26 25 25 26 29 26 28 30 26 24 26 29 33 32 26 40 38 46
64 68 65 53 40 38 33 26 25 22 13 5 4 5 8 13 17 9 10 17 15 11 13 17 22 27 28 29 28 27 26 27 29 25 23 21 24 34 36 26 33 34 34
64 68 64 55 49 47 39 31 30 26 12 6 6 4 7 13 16 12 10 14 16 15 15 16 18 24 27 27 26 26 26 32 26 23 24 28 25 32 32 28 30 31 32
63 67 64 60 55 51 44 33 31 24 17 10 9 8 7 12 22 24 16 16 16 15 16 18 18 22 26 27 25 21 25 27 21 21 21 25 30 33 29 34 30 31 31
68 71 66 63 57 54 47 36 31 28 23 13 11 10 9 12 15 26 23 21 19 17 18 19 18 19 22 24 26 19 27 29 21 20 25 26 27 29 31 30 30 31 31
69 73 69 67 61 59 51 39 29 34 29 17 14 13 13 17 16 15 17 18 21 21 22 20 21 18 19 20 25 27 34 22 19 21 31 35 32 31 35 37 33 44 50
75 74 69 69 66 61 55 46 35 37 35 24 18 16 18 24 20 16 17 17 17 19 18 23 14 15 19 20 23 39 36 22 23 31 40 37 38 37 44 39 36 44 41
78 77 76 72 69 63 56 52 44 35 38 31 24 17 27 27 23 18 17 17 17 16 17 22 15 14 20 30 23 44 33 31 27 37 31 44 38 46 48 40 37 32 26
79 75 75 72 70 63 57 52 50 40 39 39 32 24 31 29 26 22 19 16 15 15 16 15 15 19 20 30 34 41 41 31 31 34 46 48 37 40 40 38 39 29 25
78 72 70 66 69 67 60 58 57 48 44 45 38 32 28 35 31 25 21 16 12 16 20 20 21 22 31 31 32 41 42 35 35 47 41 41 40 33 30 26 29 32 27
78 73 71 71 69 70 65 64 61 57 51 48 39 35 28 40 36 29 24 18 13 13 17 19 21 22 20 26 29 31 37 46 42 49 47 43 26 19 25 25 26 24 27
83 77 72 72 73 72 69 70 66 62 49 44 41 37 31 40 41 36 30 26 20 14 18 18 19 19 21 22 27 29 37 47 50 43 47 35 26 24 25 23 18 13 13
83 80 75 73 74 75 73 74 71 57 51 51 45 42 38 40 43 41 38 32 26 20 22 25 23 21 22 26 30 31 34 48 43 39 38 35 31 27 25 25 22 21 19
88 85 81 76 75 77 77 77 71 64 56 57 50 46 44 38 44 44 45 41 34 30 30 29 30 29 26 25 28 30 30 30 29 31 35 34 30 28 26 23 22 22 24
87 90 86 79 76 77 79 74 70 66 60 59 54 49 50 48 44 43 44 45 43 38 38 38 33 31 33 32 32 33 34 32 32 34 35 33 31 31 30 31 32 29 26
83 91 93 84 75 74 81 80 75 70 67 62 58 53 53 55 50 45 43 41 43 40 43 44 39 38 36 37 37 36 37 37 37 37 39 41 42 41 40 38 35 33 31
81 89 95 85 77 74 81 80 80 74 70 70 65 59 57 60 59 53 49 46 35 37 36 37 37 35 28 24 34 40 39 37 40 45 46 47 46 44 44 44 41 40 38
Wind_Direction_850mb
258 252 232 216 201 197 195 201 217 230 228 266 299 323 332 324 312 309 317 325 314 262 238 237 239 243 244 207 185 186 188 184 185 188 205 198 201 208 213 209 201 201 198
261 228 213 197 195 187 191 202 216 219 204 267 324 338 339 330 319 306 311 324 323 210 203 217 236 230 209 189 186 187 178 177 184 194 181 171 195 205 212 211 202 199 200
240 210 194 188 181 188 190 203 209 201 198 270 338 345 339 326 321 309 315 337 327 172 195 204 210 202 194 189 186 190 190 183 186 193 180 159 171 182 193 197 207 201 202
221 199 186 180 185 181 185 190 194 192 194 286 340 343 338 329 345 329 344 4 230 202 205 192 202 192 193 193 191 192 195 200 202 194 203 188 191 165 161 198 206 206 207
200 189 182 182 176 181 184 177 180 187 203 293 347 343 344 359 1 344 340 330 281 199 177 198 194 201 197 191 191 191 197 197 198 191 200 187 169 166 159 156 178 192 203
183 185 180 175 173 176 176 172 175 180 195 334 346 354 28 27 5 343 339 315 274 215 190 194 190 194 187 190 194 192 195 194 197 199 213 204 173 171 175 159 165 184 181
180 182 179 177 177 177 178 174 174 183 179 52 350 21 13 21 8 6 352 348 157 174 194 193 186 179 168 175 184 192 193 190 201 218 211 213 201 186 203 174 161 158 166
183 182 181 179 181 180 180 175 169 162 156 94 358 22 6 14 5 6 11 25 95 133 173 185 180 168 161 165 175 176 183 192 200 211 222 213 208 192 205 196 179 163 162
182 182 181 183 184 183 182 179 169 163 156 153 35 360 349 8 8 15 37 71 108 122 147 174 171 163 157 162 170 171 181 189 197 207 207 223 204 208 181 193 196 174 158
183 183 184 184 185 183 182 178 177 173 154 158 99 33 30 19 26 36 50 74 107 108 129 158 176 175 167 165 165 169 178 195 197 202 211 210 204 182 197 214 200 188 175
186 185 185 184 184 184 185 183 186 190 182 171 138 68 43 40 38 62 78 80 94 102 122 139 166 174 173 171 171 173 181 187 187 199 207 201 201 200 213 206 211 205 197
187 186 185 184 187 188 188 188 186 188 184 173 171 135 73 64 41 73 102 91 96 102 122 144 152 167 172 170 176 176 176 173 180 194 202 201 196 194 196 196 195 200 195
188 187 187 187 191 192 191 190 187 183 188 176 171 159 108 82 69 73 96 105 105 113 122 124 144 157 161 164 171 174 177 181 185 180 185 187 179 177 180 175 187 182 171
191 188 189 190 193 195 194 189 189 187 190 171 165 164 142 130 98 84 89 98 97 103 127 131 132 154 162 162 164 165 160 155 172 191 191 186 182 184 174 179 191 189 167
193 192 191 195 195 197 195 190 188 186 193 177 173 167 164 149 135 107 93 94 85 89 116 135 143 139 162 163 171 166 152 146 146 151 162 156 157 161 160 153 137 144 144
196 195 197 199 198 197 195 192 188 186 194 189 177 166 169 155 145 135 118 104 90 73 96 125 142 170 170 168 181 173 174 155 130 141 149 154 152 152 146 157 146 141 147
198 199 200 202 201 198 195 193 188 182 192 193 183 170 172 161 154 151 127 109 95 78 90 120 116 126 166 170 151 172 170 162 143 146 139 142 128 127 131 136 138 138 140
201 204 202 204 205 200 197 192 190 187 192 194 190 181 181 176 171 168 151 128 98 96 106 124 98 109 117 164 164 159 165 152 137 139 144 143 135 136 139 144 136 143 141
206 205 207 203 206 202 199 194 193 194 194 196 194 188 186 185 180 175 166 149 122 112 114 104 112 123 109 125 171 191 192 178 165 168 161 155 141 134 138 137 143 141 130
209 207 210 207 207 205 201 198 196 197 197 198 194 191 189 190 183 185 181 169 147 130 136 122 111 116 129 123 119 133 162 173 172 167 157 156 160 155 149 142 148 141 133
212 209 213 209 208 205 202 201 201 202 198 195 195 188 192 192 192 193 193 184 177 163 162 158 141 127 124 135 141 144 157 160 161 173 179 178 170 166 167 160 148 149 161
210 211 211 214 210 206 204 204 207 203 198 196 194 189 191 190 192 197 196 197 197 189 173 176 166 156 150 141 135 138 154 165 164 166 167 171 172 174 176 179 187 196 207
212 211 210 214 213 208 207 206 209 203 199 197 195 191 194 189 190 194 197 198 204 206 191 181 183 179 171 164 162 155 155 163 176 176 174 176 179 180 184 189 196 199 205
211 209 209 213 214 210 210 213 209 204 199 198 196 193 196 197 193 195 201 204 205 208 206 196 190 190 192 189 184 181 180 178 177 181 182 186 193 197 195 192 194 197 201
209 208 209 208 213 213 210 212 212 206 201 200 198 194 197 204 203 204 203 208 216 217 211 207 203 200 203 205 202 196 192 192 194 195 198 201 203 202 199 198 202 209 219
205 207 207 206 209 213 211 214 213 208 204 202 201 200 199 207 210 211 211 215 217 220 224 225 216 212 216 214 214 210 207 209 209 209 211 211 210 209 207 208 212 219 229